Location: Marcé
(47.5801°N, 0.3280°W)
Time: 23:08:54
(UTC+01:00)

Transit 2A - Pass Details

Date: 08 December 2021
Orbit: 591 x 967 km, 66.7° (Epoch: 23 January)

Event Time Altitude Azimuth Distance (km) Brightness Sun altitude
Rises 22:29:40 0° 162° (SSE) 3,304 - -52.1°
Reaches altitude 10° 22:32:46 10° 144° (SE) 2,451 - -52.6°
Maximum altitude 22:36:27 18° 103° (ESE) 2,026 - -53.1°
Drops below altitude 10° 22:40:21 10° 63° (ENE) 2,608 - -53.7°
Sets 22:43:46 0° 46° (NE) 3,605 - -54.2°
